Find BRO-6

NORAD ID: 52422 Int'l Des: 2022-047 Owner: UNSEEN Country: F operational
LEOCIRCULARRETROGRADESSO

Live Position

Loading 3D Globe...

About BRO-6

Description loading...

Upcoming Passes

Passes for default location (London). Set your location on the main map for personalized predictions.

Altitude History

Loading altitude history...

Two-Line Element Set

1 52422U 22047AE 26111.86314667 .00028870 00000-0 57005-3 0 9997
2 52422 97.3391 201.9893 0003600 261.3091 98.7751 15.47111660222434
Epoch: Apr 21, 2026 • Age: 5 hours

Current Status

Altitude 438.2 km
Velocity 7.65 km/s
Sub-Earth Point 62.26°N, 46.69°W
Launch Date May 2, 2022
Age 3.9 years
Type other

Technical Details

Classification Payload
Mass 10.00 kg
Dry Mass 10.00 kg
Total Mass 10.00 kg
Length 0.30 m
Diameter 0.20 m
Span 0.30 m
Shape Box
Manufacturer GOMSP
Bus Type Cubesat 6U
Phase Status In Orbit
Owner/State UNSEEN/F

Most Searched